Location: Castillon
(43.0896°N, 0.2156°E)
Time: 03:15:49
(UTC+00:00)

Cosmos 1980 Rocket - Pass Details

Date: 24 October 2021
Orbit: 828 x 851 km, 71.0° (Epoch: 07 December)

Event Time Altitude Azimuth Distance (km) Brightness Sun altitude
Rises 18:37:24 0° 253° (WSW) 3,392 6.7 -18.0°
Reaches altitude 10° 18:40:41 10° 272° (W) 2,465 5.9 -18.6°
Maximum altitude 18:44:25 18° 314° (NW) 1,985 4.7 -19.3°
Drops below altitude 10° 18:48:10 10° 355° (N) 2,482 4.7 -20.0°
Sets 18:51:31 0° 15° (NNE) 3,424 5.2 -20.6°
